929  
AXUS43 KGID 242302  
MISGRI  
 
GID CWA HOURLY WEATHER ROUNDUP  
NATIONAL WEATHER SERVICE HASTINGS NE  
500 PM CST FRI NOV 24 2017  
 
NOTE: "FAIR" INDICATES FEW OR NO CLOUDS BELOW 12,000 FEET WITH NO  
SIGNIFICANT WEATHER AND/OR OBSTRUCTIONS TO VISIBILITY.  
   
..SOUTH CENTRAL NEBRASKA
 
 
 
CITY SKY/WX TMP DP RH WIND PRES REMARKS  
GRAND ISLAND CLEAR 61 35 37 N20G29 29.79R  
KEARNEY CLEAR 60 38 43 N15 29.83R  
HASTINGS CLEAR 60 36 40 N15 29.80R  
ORD PTCLDY 57 28 33 NW22G30 29.81R  
YORK CLEAR 61 34 36 N16G24 29.76R  
AURORA CLEAR 61 34 36 N22 29.77R  
LEXINGTON CLEAR 61 35 38 N15G21 29.83R  
HOLDREGE CLEAR 60 38 43 N13G20 29.82R  
HEBRON CLEAR 65 39 38 N9 29.76R  
   
..NEBRASKA PANHANDLE
 
 
 
CITY SKY/WX TMP DP RH WIND PRES REMARKS  
CHADRON PTCLDY 52 28 39 NW12 29.91R  
ALLIANCE CLEAR 50 26 39 N14 29.92R  
SCOTTSBLUFF CLEAR 53 21 28 NW8 29.93R  
SIDNEY CLOUDY 52 24 33 N14 29.92R  
   
..WESTERN AND NORTH CENTRAL NEBRASKA
 
 
 
CITY SKY/WX TMP DP RH WIND PRES REMARKS  
VALENTINE CLEAR 53 28 38 NW14 29.86R  
AINSWORTH CLEAR 52 29 41 NW13 29.85R  
ONEILL PTCLDY 53 37 54 NW13G20 29.83R  
BROKEN BOW CLEAR 57 33 40 NW18G26 29.84R  
IMPERIAL CLOUDY 60 36 40 N13 29.86R  
NORTH PLATTE CLEAR 57 31 37 N14 29.86R  
MCCOOK CLOUDY 61 38 42 N9 29.83R  
   
..EASTERN NEBRASKA
 
 
 
CITY SKY/WX TMP DP RH WIND PRES REMARKS  
NORFOLK CLEAR 55 36 48 NW20G29 29.75R  
SO SIOUX CITY CLEAR 56 39 53 NW26G43 29.71R  
TEKAMAH CLEAR 59 37 44 NW24G33 29.71R  
COLUMBUS CLEAR 59 35 40 NW25 29.75R  
ALBION PTCLDY 58 33 39 NW21G32 29.78R  
OMAHA EPPLEY PTCLDY 63 35 35 NW29G37 29.69R  
OFFUTT AFB PTCLDY 65 35 32 N26G39 29.69R  
MILLARD PTCLDY 65 37 35 NW16G26 29.71R  
LINCOLN CLEAR 65 37 35 NW17 29.74R  
NEBRASKA CITY CLEAR 63 40 43 N8 29.69R  
BEATRICE PTCLDY 60 41 49 N9 29.72R  
FALLS CITY CLEAR 64 40 41 N13 29.69R  
   
..NORTHERN KANSAS
 
 
 
CITY SKY/WX TMP DP RH WIND PRES REMARKS  
GOODLAND CLOUDY 61 34 36 N12 29.85R  
HILL CITY PTCLDY 64 38 38 NE12 29.80R  
NORTON CLEAR 63 30 29 N12 29.79S  
PHILLIPSBURG CLEAR 64 36 34 N13 29.79S  
SMITH CENTER CLEAR 64 37 36 N14 29.79R  
HAYS PTCLDY 67 38 34 NE13 29.77R  
RUSSELL CLOUDY 67 38 34 N13 29.76R  
CONCORDIA MOCLDY 65 41 41 N9 29.75R  
SALINA CLOUDY 72 39 30 N18 29.73R  
TOPEKA PTCLDY 71 41 33 N20G29 29.65R  
 
CLICK HERE TO GO TO PREVIOUS BULLETINS.

The Nexlab NE Page
The Nexlab KS Page Main Text Page